Regional Weather Roundup
Issued by NWS Northern Indiana

Home | Current Version | Previous Version | Graphics & Text | Print | Product List | Glossary On
Versions: 1 2 3 4 5 6 7 8 9 10 11 12 13 14 15 16 17 18 19 20 21 22 23 24 25 26 27 28 29 30 31 32 33 34 35 36 37 38 39 40 41 42 43 44 45 46 47 48 49 50
000
ASUS43 KIWX 262200
RWRIWX

KIWX WEATHER ROUNDUP
NATIONAL WEATHER SERVICE NORTHERN INDIANA
600 PM EDT THU MAR 26 2015

NOTE: "FAIR" INDICATES FEW OR NO CLOUDS BELOW 12,000 FEET WITH NO
SIGNIFICANT WEATHER AND/OR OBSTRUCTIONS TO VISIBILITY.

* THESE STATIONS ARE NOT UNDER NWS QUALITY CONTROL. THEY ALSO MAY NOT
  REPORT WEATHER SUCH AS PRECIPITATION OR FOG.

INZ001>027-262300-
NORTHERN INDIANA

CITY           SKY/WX    TMP DP  RH WIND       PRES   REMARKS
GARY*          PTSUNNY   39  19  45 NE8       29.99R
SOUTH BEND     CLOUDY    39  22  50 NW13      29.98R
ELKHART*       CLOUDY    39  18  41 NW12      29.97R
GOSHEN         PTSUNNY   40  22  48 NW18G24   29.95R
ANGOLA*        CLOUDY    39  25  56 NW13      29.91R
FORT WAYNE     CLOUDY    41  28  60 NW15      29.92R
PERU/GRISSOM   CLOUDY    43  29  58 N14       29.93R

$$
INZ028>050-262300-
CENTRAL INDIANA

CITY           SKY/WX    TMP DP  RH WIND       PRES   REMARKS
LAFAYETTE      PTSUNNY   44  28  53 NW13G21   29.96R
KOKOMO*          N/A     45  34  65 W15       29.93S
MUNCIE*        CLOUDY    42  32  67 NW12      29.92F
INDIANAPOLIS   CLOUDY    43  31  62 NW15      29.93F

$$
MIZ043>046-050>051-056>058-064>065-071>073-077>080-262300-
SOUTHWEST LOWER MICHIGAN

CITY           SKY/WX    TMP DP  RH WIND       PRES   REMARKS
BATTLE CREEK   CLOUDY    37  22  54 NW16      29.93R
BENTON HARBOR  CLOUDY    35  26  69 NW7       29.98R WCI  29
COLDWATER*     CLOUDY    37  22  54 NW16G22   29.92R
HILLSDALE*     CLOUDY    40  24  53 NW12      29.89R
HOLLAND        CLOUDY    35  27  72 NW13G20   29.96R WCI  26
GRAND RAPIDS   FLURRIES  36  24  62 NW16      29.92R
KALAMAZOO      CLOUDY    38  21  50 W15       29.94R
STURGIS*       CLOUDY    37  21  52 W10G18    29.93R
THREE RIVERS*  CLOUDY    38  21  51 NW13G24   29.95R

$$
OHZ001>008-015>018-024>025-262300-
NORTHWEST OHIO

CITY           SKY/WX    TMP DP  RH WIND       PRES   REMARKS
DEFIANCE       CLOUDY    44  28  53 NW16      29.90R
FINDLAY        CLOUDY    42  31  64 NW13      29.87S
TOLEDO EXPRESS CLOUDY    43  27  53 W13       29.87R
TOLEDO METCALF CLOUDY    44  29  55 W10       29.88R
LIMA           CLOUDY    42  32  67 W12       29.89S

$$
AND FOR LAKE MICHIGAN COASTAL AND OPEN LAKE BUOY OBSERVATIONS

STATION/POSITION TEMP    WIND        PRES    VSBY  WAVE
                 AIR SEA DIR/SP/G                  HT/PER
                 (F)     (DEG/KT/KT) (MB)    (MI)  (FT/S)
CALUMET HARBOR    37      40/  8/ 10 1014.2R
MICHIGAN CITY     37     320/  4/  4   N/A
BURNS HARBOR      36      40/  5/  6 1015.9S
SAINT JOSEPH      37     220/  3/  4 1015.2R

$$
&&



USA.gov is the U.S. government's official web portal to all federal, state and local government web resources and services.